User: anonymous   Login
Location: Theydon Bois
(51.6750°N, 0.1050°E)
Time: 12:18:33
(UTC+01:00)
Language:

Thor Agena Rocket - Orbit

View from above orbital plane
View from above orbital plane
View from above satellite
View from above satellite

Ground track
Ground track

The orbit data is extracted from the following two-line orbital elements,

1   733U 64002A   17289.64609941 +.00000062 +00000-0 +40814-4 0  9990
2   733 099.1233 121.3295 0033724 184.6049 175.4827 14.32291067799279
Epoch (UTC): 16 October 2017 15:30:22
Eccentricity: 0.0033724
inclination: 99.1233°
perigee height: 760 km
apogee height: 808 km
right ascension of ascending node: 121.3295°
argument of perigee: 184.6049°
revolutions per day: 14.32291067
mean anomaly at epoch: 175.4827°
orbit number at epoch: 79927

The dashed part of the orbit path shows where the satellite is in the earth's shadow,  

DLR